Location: �couen
(49.0206°N, 2.3831°E)
Time: 23:04:36
(UTC+00:00)

Cosmos 1758 - Pass Details

Date: 30 May 2022
Orbit: 538 x 557 km, 82.5° (Epoch: 01 July)

Event Time Altitude Azimuth Distance (km) Brightness Sun altitude
Rises 21:56:57 0° 3° (N) 2,716 8.0 -14.9°
Reaches altitude 10° 21:59:44 10° 24° (NNE) 1,822 6.5 -15.1°
Maximum altitude 22:02:26 17° 67° (ENE) 1,414 5.4 -15.3°
Enters shadow 22:04:22 13° 100° (E) 1,633 5.4 -15.4°
